(263035) = 2005 WB144 = 2007 GF4

Discovered at Crni Vrh on 2007-04-12 by Crni Vrh.

Orbit

Orbit type: Main Belt

Note: WebGL enabled browser required.

epoch2023-02-25.0
epoch JD2460000.5
perihelion date2018-05-04.84409
perihelion JD2458243.34409
argument of perihelion (°)118.80319
ascending node (°)77.57120
inclination (°)21.26278
eccentricity0.3135828
perihelion distance (AU)2.1515566
Tisserand w.r.t. Jupiter3.0
ΔV w.r.t. Earth (km/sec)11.2
semimajor axis (AU)3.1344734
mean anomaly (°)312.08095
mean daily motion (°/day)0.17760570
aphelion distance (AU)4.117
period (years)5.55
P-vector [x]-0.90118703
P-vector [y]-0.39683422
P-vector [z]0.17431159
Q-vector [x]0.24988353
Q-vector [y]-0.80429149
Q-vector [z]-0.53914136
absolute magnitude15.2
phase slope0.15
uncertainty0
referenceMPO 745323
observations used564
oppositions12
arc length (days)8152
first opposition used2001
last opposition used2023
residual rms (arc-secs)0.70
perturbers coarse indicatorM-v
perturbers precise indicator003Ek
first observation date used2001-01-17.0
last observation date used2023-05-14.0
computer nameMPCLINUX
JD of orbit computation2455934.160893
perihelion JD uncertainty (days)1.3753E-04
argument of perihelion uncertainty (°)4.3709E-05
ascending node uncertainty (°)2.6943E-05
inclination uncertainty (°)1.1682E-05
eccentricity uncertainty 1.5725E-07
perihelion distance uncertainty (AU)4.8312E-07
Minimum Orbit Intersection Distances (in AU)
for orbit epoch: 2460000.5, reference: E2023-JF5
Mercury1.74399
Venus1.4673
Earth1.22727
Mars0.7423
Jupiter1.34021
Saturn5.35033
Uranus15.7638
Neptune25.9175

Observations

572 total observations over interval: 2001 01 17.33882 – 2023 05 14.193954
These data are available for download (format description).

Date (UT) J2000 RA J2000 Dec Magn Location Ref
2001 01 17.33882 09 32 00.83 +41 32 02.8 19.0   704 – Lincoln Laboratory ETS, New Mexico MPS 213883
2001 01 17.35429 09 32 00.17 +41 32 14.6 19.0   704 – Lincoln Laboratory ETS, New Mexico MPS 213883
2001 01 17.37087 09 31 59.47 +41 32 27.3 19.1   704 – Lincoln Laboratory ETS, New Mexico MPS 213883
2001 01 17.38682 09 31 58.68 +41 32 38.9 19.2   704 – Lincoln Laboratory ETS, New Mexico MPS 213883
2001 01 17.40247 09 31 57.94 +41 32 51.2 19.2   704 – Lincoln Laboratory ETS, New Mexico MPS 213883
2001 02 13.24248 09 06 40.83 +46 01 17.0 18.2   704 – Lincoln Laboratory ETS, New Mexico MPS 213883
2001 02 13.25609 09 06 40.03 +46 01 22.4 18.8   704 – Lincoln Laboratory ETS, New Mexico MPS 213883
2001 02 13.26972 09 06 39.02 +46 01 26.6 19.5   704 – Lincoln Laboratory ETS, New Mexico MPS 213883
2001 02 13.28332 09 06 38.28 +46 01 33.1 19.5   704 – Lincoln Laboratory ETS, New Mexico MPS 213883
2001 02 13.29711 09 06 37.39 +46 01 37.3 18.9   704 – Lincoln Laboratory ETS, New Mexico MPS 213883
2001 02 22.13239 08 58 01.69 +46 38 42.3 18.7 R 699 – Lowell Observatory-LONEOS MPS 209064
2001 02 22.16087 08 57 59.95 +46 38 46.4   699 – Lowell Observatory-LONEOS MPS 209064
2001 02 22.18932 08 57 58.46 +46 38 51.3   699 – Lowell Observatory-LONEOS MPS 209064
2001 02 22.21771 08 57 56.84 +46 38 55.1   699 – Lowell Observatory-LONEOS MPS 209064
2001 05 26.23003 09 50 49.96 +35 00 26.6 20.1   644 – Palomar Mountain/NEAT MPS 209064
2001 05 26.24084 09 50 51.00 +35 00 18.4 20.2   644 – Palomar Mountain/NEAT MPS 209064
2001 05 26.25182 09 50 52.02 +35 00 09.5 20.7   644 – Palomar Mountain/NEAT MPS 209064
2005 11 30.19533 05 23 27.44 +23 06 36.9 20.1 V 691 – Steward Observatory, Kitt Peak-Spacewatch MPS 154043
2005 11 30.21262 05 23 26.47 +23 06 40.4 20.2 V 691 – Steward Observatory, Kitt Peak-Spacewatch MPS 154043
2005 11 30.22998 05 23 25.50 +23 06 44.0 20.1 V 691 – Steward Observatory, Kitt Peak-Spacewatch MPS 154043
2005 12 02.33284 05 21 25.84 +23 14 30.9 19.3 V G96 – Mt. Lemmon Survey MPS 154043
2005 12 02.34079 05 21 25.41 +23 14 32.3 19.4 V G96 – Mt. Lemmon Survey MPS 154043
2005 12 02.34887 05 21 24.91 +23 14 34.4 19.5 V G96 – Mt. Lemmon Survey MPS 154043
2005 12 02.35704 05 21 24.44 +23 14 36.2 19.5 V G96 – Mt. Lemmon Survey MPS 154043
2007 02 16.49402 14 31 23.98 +15 24 03.5 18.9 V 703 – Catalina Sky Survey MPS 209064
2007 02 16.50264 14 31 24.31 +15 24 05.2 18.8 V 703 – Catalina Sky Survey MPS 209064
2007 02 16.51131 14 31 24.70 +15 24 08.2 18.6 V 703 – Catalina Sky Survey MPS 209064
2007 02 16.51999 14 31 25.10 +15 24 09.3 19.0 V 703 – Catalina Sky Survey MPS 209064
2007 04 12.11904 14 25 46.74 +18 26 52.7 17.6 R 106 – Crni Vrh MPS 206305
2007 04 12.12481 14 25 46.42 +18 26 51.7 17.8 R 106 – Crni Vrh MPS 206305
2007 04 12.13062 14 25 46.09 +18 26 51.7 17.5 R 106 – Crni Vrh MPS 206305
2007 04 12.13640 14 25 45.83 +18 26 49.5 17.4 R 106 – Crni Vrh MPS 206305
2007 04 12.94086 14 25 02.80 +18 25 37.2 17.4 R 106 – Crni Vrh MPS 206305
2007 04 12.94959 14 25 02.33 +18 25 36.3 16.6 R 106 – Crni Vrh MPS 206305
2007 04 12.95830 14 25 01.82 +18 25 35.6 16.5 R 106 – Crni Vrh MPS 206305
2007 04 12.96703 14 25 01.34 +18 25 34.2 16.8 R 106 – Crni Vrh MPS 206305
2007 04 13.06999 14 24 55.55 +18 25 23.9 17.2 R 106 – Crni Vrh MPS 206305
2007 04 13.07899 14 24 55.03 +18 25 22.9 17.3 R 106 – Crni Vrh MPS 206305
2007 04 13.08798 14 24 54.50 +18 25 21.7 17.3 R 106 – Crni Vrh MPS 206305
2007 04 13.09713 14 24 54.01 +18 25 20.8 17.4 R 106 – Crni Vrh MPS 206305
2007 04 13.91982 14 24 09.28 +18 23 49.0 17.0 R 106 – Crni Vrh MPS 207006
2007 04 13.93655 14 24 08.36 +18 23 46.9 17.4 R 106 – Crni Vrh MPS 207006
2007 04 13.95329 14 24 07.40 +18 23 45.5 17.1 R 106 – Crni Vrh MPS 207006
2007 04 13.97005 14 24 06.45 +18 23 42.7 17.1 R 106 – Crni Vrh MPS 207006
2007 04 15.27392 14 22 53.91 +18 20 50.0 17.7   704 – Lincoln Laboratory ETS, New Mexico MPS 207006
2007 04 15.28318 14 22 53.44 +18 20 46.5 18.2   704 – Lincoln Laboratory ETS, New Mexico MPS 207006
2007 04 15.29302 14 22 52.84 +18 20 46.1 18.3   704 – Lincoln Laboratory ETS, New Mexico MPS 207006
2007 04 15.30275 14 22 52.27 +18 20 44.2 18.2   704 – Lincoln Laboratory ETS, New Mexico MPS 207006
2007 04 15.31203 14 22 51.62 +18 20 42.5 18.3   704 – Lincoln Laboratory ETS, New Mexico MPS 207006
2007 04 18.70682 14 19 37.13 +18 10 07.8 18.1 R D29 – Purple Mountain Observatory, XuYi Station MPS 207006
2007 04 18.73690 14 19 35.33 +18 10 00.8 18.1 R D29 – Purple Mountain Observatory, XuYi Station MPS 207006
2007 04 18.76568 14 19 33.55 +18 09 54.5 18.0 R D29 – Purple Mountain Observatory, XuYi Station MPS 207006
2007 04 18.79467 14 19 31.82 +18 09 47.3 17.9 R D29 – Purple Mountain Observatory, XuYi Station MPS 207006
2007 05 13.25774 13 57 07.39 +14 48 59.4 17.8   704 – Lincoln Laboratory ETS, New Mexico MPS 209064
2007 05 13.26696 13 57 06.96 +14 48 52.1 18.3   704 – Lincoln Laboratory ETS, New Mexico MPS 209064
2007 05 13.27618 13 57 06.55 +14 48 44.9 18.2   704 – Lincoln Laboratory ETS, New Mexico MPS 209064
2007 05 13.28540 13 57 06.07 +14 48 39.1 18.1   704 – Lincoln Laboratory ETS, New Mexico MPS 209064
2007 05 13.29464 13 57 05.67 +14 48 31.8 18.0   704 – Lincoln Laboratory ETS, New Mexico MPS 209064
2007 05 22.22438 13 51 27.90 +12 49 01.2 18.2 V 703 – Catalina Sky Survey MPS 210179
2007 05 22.23162 13 51 27.64 +12 48 54.6 18.5 V 703 – Catalina Sky Survey MPS 210179
2007 05 22.23888 13 51 27.43 +12 48 48.0 18.6 V 703 – Catalina Sky Survey MPS 210179
2007 05 22.24615 13 51 27.18 +12 48 42.4 18.3 V 703 – Catalina Sky Survey MPS 210179
2007 05 24.23743 13 50 29.34 +12 19 37.1 18.5   704 – Lincoln Laboratory ETS, New Mexico MPS 210179
2007 05 24.24595 13 50 28.99 +12 19 30.5 19.0   704 – Lincoln Laboratory ETS, New Mexico MPS 210179
2007 05 24.25480 13 50 28.80 +12 19 23.1 19.1   704 – Lincoln Laboratory ETS, New Mexico MPS 210179
2007 05 24.26330 13 50 28.51 +12 19 15.5 19.0   704 – Lincoln Laboratory ETS, New Mexico MPS 210179
2007 05 24.27179 13 50 28.33 +12 19 08.0 19.3   704 – Lincoln Laboratory ETS, New Mexico MPS 210179
2010 10 02.40498 03 52 01.16 +05 36 41.3 20.4 V G96 – Mt. Lemmon Survey MPS 349519
2010 10 02.41197 03 52 01.02 +05 36 40.4 21.4 V G96 – Mt. Lemmon Survey MPS 349519
2010 10 02.41891 03 52 00.87 +05 36 39.9 20.9 V G96 – Mt. Lemmon Survey MPS 349519
2010 10 02.42583 03 52 00.73 +05 36 39.2 21.1 V G96 – Mt. Lemmon Survey MPS 349519
2010 10 30.514750 03 36 29.793 +04 52 05.21 20.82 r F51 – Pan-STARRS 1, Haleakala MPS 365686
2010 10 30.526711 03 36 29.240 +04 52 04.51 20.76 r F51 – Pan-STARRS 1, Haleakala MPS 365686
2010 11 16.498115 03 22 41.253 +04 39 54.64 20.72 i F51 – Pan-STARRS 1, Haleakala MPS 365686
2010 11 16.509445 03 22 40.673 +04 39 54.56 20.78 i F51 – Pan-STARRS 1, Haleakala MPS 365686
2011 11 10.58398 08 08 06.552 +30 06 18.07 20.4 i F51 – Pan-STARRS 1, Haleakala MPS 400984
2011 11 10.59573 08 08 06.930 +30 06 22.57 20.4 i F51 – Pan-STARRS 1, Haleakala MPS 400984
2011 11 30.63313 08 14 04.842 +32 46 33.57 19.9 z F51 – Pan-STARRS 1, Haleakala MPS 403740
2011 11 30.64085 08 14 04.856 +32 46 37.79 19.9 z F51 – Pan-STARRS 1, Haleakala MPS 403740
2011 12 25.31832 08 05 50.24 +37 10 02.9 19.4 V 703 – Catalina Sky Survey MPS 405841
2011 12 25.32687 08 05 49.92 +37 10 09.4 19.3 V 703 – Catalina Sky Survey MPS 405841
2011 12 25.33541 08 05 49.45 +37 10 16.1 19.8 V 703 – Catalina Sky Survey MPS 405841
2011 12 25.34392 08 05 49.20 +37 10 21.5 19.2 V 703 – Catalina Sky Survey MPS 405842
2011 12 30.40021 08 01 51.88 +38 07 15.0 19.0 V 703 – Catalina Sky Survey MPS 405842
2011 12 30.40395 08 01 51.63 +38 07 18.0 19.3 V 703 – Catalina Sky Survey MPS 405842
2011 12 30.40773 08 01 51.45 +38 07 20.8 19.3 V 703 – Catalina Sky Survey MPS 405842
2011 12 30.41149 08 01 51.27 +38 07 23.3 19.1 V 703 – Catalina Sky Survey MPS 405842
2011 12 30.41525 08 01 51.09 +38 07 24.2 19.1 V 703 – Catalina Sky Survey MPS 405842
2012 01 19.21823 07 41 13.99 +41 22 55.7 18.8 V 703 – Catalina Sky Survey MPS 408697
2012 01 19.22331 07 41 13.59 +41 22 58.3 18.9 V 703 – Catalina Sky Survey MPS 408697
2012 01 19.22835 07 41 13.27 +41 23 01.5 19.1 V 703 – Catalina Sky Survey MPS 408697
